| time (UTC) | temp F | wind direction | speed MPH | gust MPH | rain 1hr in | rain 24hr in | rain mn in | humidity % | barometer mb |
| 20260506140043 | 69 | 0 | 3.0 | 9.0 | 0.00 | 0.00 | 0.00 | 86 | 1016.8 |
| 20260506134549 | 68 | 360 | 2.0 | 8.0 | 0.00 | 0.00 | 0.00 | 86 | 1016.4 |
| 20260506133049 | 67 | 0 | 1.0 | 5.0 | 0.00 | 0.00 | 0.00 | 86 | 1016.5 |
| 20260506131552 | 66 | 0 | 1.0 | 4.0 | 0.00 | 0.00 | 0.00 | 87 | 1016.5 |
| 20260506130101 | 65 | 0 | 1.0 | 5.0 | 0.00 | 0.00 | 0.00 | 89 | 1016.6 |
| 20260506124554 | 64 | 360 | 2.0 | 4.0 | 0.00 | 0.00 | 0.00 | 89 | 1016.5 |
| 20260506123045 | 64 | 360 | 0.0 | 3.0 | 0.00 | 0.00 | 0.00 | 90 | 1016.2 |
| 20260506121541 | 63 | 360 | 1.0 | 3.0 | 0.00 | 0.00 | 0.00 | 90 | 1016.3 |
| 20260506120048 | 62 | 0 | 0.0 | 2.0 | 0.00 | 0.00 | 0.00 | 91 | 1016.1 |
| 20260506114547 | 62 | 0 | 0.0 | 1.0 | 0.00 | 0.00 | 0.00 | 91 | 1016.0 |
| 20260506113053 | 61 | 0 | 0.0 | 1.0 | 0.00 | 0.00 | 0.00 | 91 | 1015.9 |
| 20260506111544 | 61 | 0 | 0.0 | 2.0 | 0.00 | 0.00 | 0.00 | 91 | 1015.8 |
| 20260506110053 | 61 | 0 | 0.0 | 1.0 | 0.00 | 0.00 | 0.00 | 91 | 1015.3 |
| 20260506104553 | 61 | 0 | 0.0 | 2.0 | 0.00 | 0.00 | 0.00 | 91 | 1015.1 |
| 20260506103056 | 60 | 0 | 0.0 | 0.0 | 0.00 | 0.00 | 0.00 | 90 | 1015.0 |
| 20260506101557 | 60 | 0 | 0.0 | 0.0 | 0.00 | 0.00 | 0.00 | 90 | 1014.7 |
| 20260506094549 | 61 | 0 | 0.0 | 0.0 | 0.00 | 0.00 | 0.00 | 89 | 1014.6 |
| 20260506093051 | 61 | 0 | 0.0 | 0.0 | 0.00 | 0.00 | 0.00 | 88 | 1014.6 |
| 20260506091548 | 61 | 0 | 0.0 | 0.0 | 0.00 | 0.00 | 0.00 | 88 | 1014.6 |
| 20260506090047 | 60 | 0 | 0.0 | 0.0 | 0.00 | 0.00 | 0.00 | 88 | 1014.5 |
| 20260506084610 | 60 | 0 | 0.0 | 0.0 | 0.00 | 0.00 | 0.00 | 87 | 1014.4 |
| 20260506083048 | 60 | 0 | 0.0 | 0.0 | 0.00 | 0.00 | 0.00 | 86 | 1014.8 |
| 20260506081551 | 60 | 0 | 0.0 | 0.0 | 0.00 | 0.00 | 0.00 | 85 | 1014.9 |
| 20260506073051 | 61 | 0 | 0.0 | 0.0 | 0.00 | 0.00 | 0.00 | 82 | 1015.1 |
| 20260506071547 | 62 | 0 | 0.0 | 0.0 | 0.00 | 0.00 | 0.00 | 81 | 1015.2 |
| 20260506061550 | 63 | 0 | 0.0 | 2.0 | 0.00 | 0.00 | 0.00 | 73 | 1015.1 |
| 20260506044649 | 65 | 0 | 0.0 | 1.0 | 0.00 | 0.00 | 0.00 | 64 | 1015.0 |
| 20260506043047 | 65 | 0 | 0.0 | 1.0 | 0.00 | 0.00 | 0.00 | 64 | 1014.8 |
| 20260506041559 | 66 | 0 | 0.0 | 2.0 | 0.00 | 0.00 | 0.00 | 62 | 1015.1 |
| 20260506040046 | 67 | 0 | 0.0 | 2.0 | 0.00 | 0.00 | 0.00 | 60 | 1015.1 |
| 20260506034619 | 67 | 360 | 0.0 | 2.0 | 0.00 | 0.00 | 0.00 | 60 | 1015.2 |
| 20260506033056 | 67 | 0 | 0.0 | 3.0 | 0.00 | 0.00 | 0.00 | 59 | 1015.2 |
| 20260506031548 | 67 | 0 | 0.0 | 2.0 | 0.00 | 0.00 | 0.00 | 59 | 1015.1 |
| 20260506030046 | 67 | 0 | 0.0 | 2.0 | 0.00 | 0.00 | 0.00 | 59 | 1015.0 |
| 20260506024547 | 67 | 0 | 0.0 | 3.0 | 0.00 | 0.00 | 0.00 | 59 | 1015.0 |
| 20260506023107 | 67 | 0 | 0.0 | 0.0 | 0.00 | 0.00 | 0.00 | 59 | 1015.2 |
| 20260506021551 | 67 | 0 | 0.0 | 0.0 | 0.00 | 0.00 | 0.00 | 62 | 1015.4 |
| 20260506020049 | 68 | 0 | 0.0 | 0.0 | 0.00 | 0.00 | 0.00 | 59 | 1015.4 |
| 20260506014548 | 69 | 0 | 0.0 | 0.0 | 0.00 | 0.00 | 0.00 | 57 | 1015.1 |
| 20260506013049 | 69 | 0 | 0.0 | 0.0 | 0.00 | 0.00 | 0.00 | 56 | 1015.2 |
| 20260506011559 | 70 | 0 | 0.0 | 0.0 | 0.00 | 0.00 | 0.00 | 55 | 1015.1 |
| 20260506010051 | 71 | 0 | 0.0 | 0.0 | 0.00 | 0.00 | 0.00 | 52 | 1015.0 |
| 20260506004600 | 72 | 0 | 0.0 | 0.0 | 0.00 | 0.00 | 0.00 | 49 | 1015.1 |
| 20260506003104 | 73 | 0 | 0.0 | 1.0 | 0.00 | 0.00 | 0.00 | 48 | 1015.2 |
| 20260506001554 | 74 | 0 | 0.0 | 3.0 | 0.00 | 0.00 | 0.00 | 45 | 1014.9 |
| 20260506000051 | 75 | 360 | 1.0 | 4.0 | 0.00 | 0.00 | 0.00 | 43 | 1015.0 |
| 20260505234606 | 76 | 360 | 1.0 | 7.0 | 0.00 | 0.00 | 0.00 | 42 | 1014.9 |
| 20260505233044 | 77 | 360 | 1.0 | 8.0 | 0.00 | 0.00 | 0.00 | 40 | 1014.7 |
| 20260505231543 | 78 | 167 | 1.0 | 11.0 | 0.00 | 0.00 | 0.00 | 39 | 1014.7 |
| 20260505230050 | 78 | 0 | 1.0 | 7.0 | 0.00 | 0.00 | 0.00 | 38 | 1014.6 |
| 20260505224549 | 79 | 198 | 3.0 | 9.0 | 0.00 | 0.00 | 0.00 | 38 | 1014.4 |
| 20260505223048 | 80 | 240 | 3.0 | 11.0 | 0.00 | 0.00 | 0.00 | 37 | 1014.4 |
| 20260505221548 | 80 | 140 | 2.0 | 9.0 | 0.00 | 0.00 | 0.00 | 37 | 1014.3 |
| 20260505214544 | 80 | 128 | 2.0 | 10.0 | 0.00 | 0.00 | 0.00 | 37 | 1014.6 |
| 20260505213100 | 81 | 0 | 2.0 | 9.0 | 0.00 | 0.00 | 0.00 | 36 | 1014.7 |
| 20260505211554 | 80 | 182 | 4.0 | 12.0 | 0.00 | 0.00 | 0.00 | 36 | 1014.6 |
| 20260505210049 | 81 | 157 | 4.0 | 10.0 | 0.00 | 0.00 | 0.00 | 37 | 1014.6 |
| 20260505204548 | 81 | 190 | 3.0 | 11.0 | 0.00 | 0.00 | 0.00 | 36 | 1014.8 |
| 20260505203044 | 80 | 43 | 4.0 | 14.0 | 0.00 | 0.00 | 0.00 | 36 | 1014.9 |
| 20260505201552 | 82 | 259 | 1.0 | 12.0 | 0.00 | 0.00 | 0.00 | 38 | 1014.9 |
| 20260505200049 | 80 | 106 | 3.0 | 10.0 | 0.00 | 0.00 | 0.00 | 39 | 1015.2 |
| 20260505194550 | 82 | 154 | 2.0 | 11.0 | 0.00 | 0.00 | 0.00 | 36 | 1015.3 |
| 20260505193052 | 80 | 105 | 4.0 | 10.0 | 0.00 | 0.00 | 0.00 | 39 | 1015.3 |
| 20260505191556 | 81 | 141 | 3.0 | 9.0 | 0.00 | 0.00 | 0.00 | 37 | 1015.7 |
| 20260505190046 | 79 | 221 | 2.0 | 12.0 | 0.00 | 0.00 | 0.00 | 35 | 1015.8 |
| 20260505184544 | 81 | 110 | 2.0 | 7.0 | 0.00 | 0.00 | 0.00 | 40 | 1015.9 |
| 20260505183048 | 80 | 179 | 3.0 | 8.0 | 0.00 | 0.00 | 0.00 | 40 | 1016.2 |
| 20260505181547 | 79 | 155 | 3.0 | 12.0 | 0.00 | 0.00 | 0.00 | 41 | 1016.7 |
| 20260505180053 | 79 | 181 | 4.0 | 10.0 | 0.00 | 0.00 | 0.00 | 44 | 1016.7 |
| 20260505174610 | 79 | 243 | 2.0 | 10.0 | 0.00 | 0.00 | 0.00 | 44 | 1016.7 |
| 20260505173049 | 77 | 314 | 2.0 | 10.0 | 0.00 | 0.00 | 0.00 | 45 | 1016.8 |
| 20260505171550 | 77 | 121 | 2.0 | 9.0 | 0.00 | 0.00 | 0.00 | 46 | 1017.0 |
| 20260505170122 | 76 | 300 | 3.0 | 9.0 | 0.00 | 0.00 | 0.00 | 47 | 1016.9 |
| 20260505164551 | 75 | 128 | 4.0 | 11.0 | 0.00 | 0.00 | 0.00 | 49 | 1017.0 |
| 20260505163045 | 74 | 196 | 3.0 | 8.0 | 0.00 | 0.00 | 0.00 | 48 | 1017.2 |
| 20260505161557 | 75 | 0 | 2.0 | 9.0 | 0.00 | 0.00 | 0.00 | 49 | 1017.4 |
| 20260505153056 | 71 | 32 | 1.0 | 7.0 | 0.00 | 0.00 | 0.00 | 55 | 1018.0 |
| 20260505151550 | 70 | 178 | 2.0 | 7.0 | 0.00 | 0.00 | 0.00 | 57 | 1018.2 |